Home   Weather   Melhus   Past weeks

Flag for Norway Past Weather in Melhus, Norway — Yesterday and Last 2 Weeks

Now
34 °F

Partly cloudy.


Feels Like: 29 °F
Forecast: 29 / 33 °F
Wind: 6 mph from East

Location: Trondheim / Vaernes

Current Time: Dec 6, 2016 at 5:03:40 pm

Latest Report: Dec 6, 2016 at 4:20 pm


Visibility: N/A

Pressure: 30.24 "Hg

Humidity: 93%

Dew Point: 32 °F

Location of MelhusLocation

Past Weather in Melhus — Graph

°F

Melhus Temperature Yesterday

Maximum temperature yesterday: 46 °F (at 12:20 am)
Minimum temperature yesterday: 32 °F (at 8:50 pm)
Average temperature yesterday: 38 °F

High & Low Weather Summary for the Past Weeks

 TemperatureHumidityPressure
High50 °F (Nov 25, 11:50 am)100% (Nov 22, 4:20 pm)30.42 "Hg (Nov 22, 4:20 pm)
Low25 °F (Nov 28, 1:50 am)57% (Nov 29, 2:50 pm)29.36 "Hg (Nov 26, 12:50 pm)
Average36 °F89%29.90 "Hg
* Reported Nov 21 3:20 pm — Dec 6 3:50 pm, Melhus, Weather by CustomWeather, © 2016

Note: Actual official high and low records may vary slightly from our data, if they occured in-between our weather recording intervals... More about our weather records

Advertising

Melhus Weather History for the Previous 24 Hours

Scroll right to see more
 ConditionsComfort  
Time TempWeatherWind HumidityBarometerVisibility
3:50 pm
Tue, Dec 6
36 °FPartly cloudy.2 mph87%30.24 "HgN/A
3:20 pm34 °FPartly cloudy.3 mph93%30.27 "HgN/A
2:50 pm36 °FPartly cloudy.3 mph87%30.27 "HgN/A
2:20 pm36 °FBroken clouds.3 mph87%30.27 "HgN/A
1:50 pm34 °FDrizzle. Broken clouds.3 mph93%30.27 "HgN/A
1:20 pm36 °FPartly sunny.1 mph87%30.27 "HgN/A
12:50 pm36 °FPartly sunny.No wind87%30.27 "HgN/A
12:20 pm36 °FBroken clouds.2 mph87%30.27 "HgN/A
11:50 am34 °FBroken clouds.3 mph93%30.27 "HgN/A
11:20 am34 °FBroken clouds.2 mph93%30.30 "HgN/A
10:50 am34 °FBroken clouds.3 mph93%30.30 "HgN/A
10:20 am34 °FPartly sunny.5 mph93%30.30 "HgN/A
9:50 am34 °FBroken clouds.3 mph93%30.30 "HgN/A
9:20 am34 °FPartly cloudy.6 mph93%30.30 "HgN/A
8:50 am34 °FPartly cloudy.6 mph93%30.30 "HgN/A
8:20 am34 °FLight rain. Partly cloudy.2 mph93%30.30 "Hg4 mi
7:50 am34 °FPartly cloudy.3 mph93%30.27 "HgN/A
7:20 am32 °FPartly cloudy.2 mph100%30.27 "HgN/A
6:50 am32 °FPassing clouds.3 mph100%30.27 "HgN/A
6:20 am34 °FLight rain. Passing clouds.2 mph93%30.27 "HgN/A
5:50 am34 °FPassing clouds.3 mph93%30.27 "HgN/A
5:20 am32 °FLight rain. Passing clouds.2 mph93%30.27 "HgN/A
3:50 am32 °FPassing clouds.3 mph100%30.27 "HgN/A
2:50 am34 °FPassing clouds.3 mph93%30.27 "HgN/A
1:50 am34 °FPassing clouds.2 mph93%30.24 "HgN/A
1:20 am34 °FPassing clouds.3 mph93%30.24 "HgN/A
12:50 am34 °FPassing clouds.1 mph93%30.24 "HgN/A
12:20 am32 °FPassing clouds.3 mph100%30.21 "HgN/A
11:50 pm
Mon, Dec 5
34 °FPassing clouds.5 mph93%30.21 "HgN/A
11:20 pm34 °FPassing clouds.2 mph93%30.21 "HgN/A
10:50 pm34 °FPassing clouds.2 mph93%30.21 "HgN/A
10:20 pm34 °FPassing clouds.No wind93%30.18 "HgN/A
9:50 pm32 °FPartly cloudy.3 mph93%30.18 "HgN/A
9:20 pm32 °FPartly cloudy.2 mph93%30.18 "HgN/A
8:50 pm32 °FPassing clouds.2 mph93%30.15 "HgN/A
8:20 pm34 °FPassing clouds.5 mph93%30.15 "HgN/A
7:50 pm36 °FPassing clouds.3 mph87%30.15 "HgN/A
7:20 pm36 °FPassing clouds.6 mph87%30.15 "HgN/A
6:50 pm36 °FPassing clouds.15 mph87%30.15 "HgN/A
6:20 pm36 °FPassing clouds.10 mph81%30.12 "HgN/A
5:50 pm36 °FPassing clouds.9 mph81%30.12 "HgN/A
5:20 pm36 °FPassing clouds.16 mph87%30.09 "HgN/A
Weather by CustomWeather, © 2016

See weather overviewHow to use our weather pages